• In Russia
  • List of Countries
  • For 7 days
  • Water Temperature
  • Satellite Maps
  • Weather Map
  • Weather Widgets
  • user-avatar
    Login

    Hourly Weather Kaprun

    Today, 20 February, Monday

    Time Temperature Precipitation Wind Pressure Humidity
    00:00 -12°C° 0 mm 2 mps 595 mmHg 84%
    01:00 -10°C° 0 mm 2 mps 595 mmHg 86%
    02:00 -10°C° 0.1 mm 2 mps 595 mmHg 86%
    03:00 -10°C° 0.1 mm 2 mps 595 mmHg 87%
    04:00 -10°C° 0.1 mm 2 mps 595 mmHg 88%
    05:00 -10°C° 0.1 mm 2 mps 595 mmHg 88%
    06:00 -10°C° 0.1 mm 2 mps 595 mmHg 89%
    07:00 -10°C° 0.1 mm 2 mps 595 mmHg 90%
    08:00 -9°C° 0 mm 2 mps 596 mmHg 90%
    09:00 -6°C° 0 mm 1 mps 596 mmHg 90%
    10:00 -4°C° 0 mm 1 mps 597 mmHg 90%
    11:00 -3°C° 0 mm 1 mps 597 mmHg 89%
    12:00 -2°C° 0 mm 1 mps 597 mmHg 88%
    13:00 -1°C° 0 mm 1 mps 597 mmHg 87%
    14:00 -1°C° 0 mm 1 mps 597 mmHg 88%
    15:00 -2°C° 0 mm 1 mps 597 mmHg 90%
    16:00 -2°C° 0 mm 1 mps 596 mmHg 91%
    17:00 -6°C° 0 mm 1 mps 595 mmHg 92%
    18:00 -10°C° 0 mm 1 mps 593 mmHg 93%
    19:00 -13°C° 0 mm 1 mps 591 mmHg 95%
    20:00 -13°C° 0 mm 1 mps 591 mmHg 93%
    21:00 -12°C° 0 mm 1 mps 592 mmHg 91%
    22:00 -13°C° 0 mm 2 mps 592 mmHg 89%
    23:00 -12°C° 0 mm 2 mps 593 mmHg 86%

    Tomorrow, 21 February, Tuesday

    Time Temperature Precipitation Wind Pressure Humidity
    00:00 -10°C° 0 mm 2 mps 594 mmHg 84%
    01:00 -9°C° 0 mm 2 mps 594 mmHg 82%
    02:00 -8°C° 0.3 mm 2 mps 594 mmHg 85%
    03:00 -7°C° 0.3 mm 2 mps 594 mmHg 88%
    04:00 -6°C° 0.3 mm 2 mps 595 mmHg 91%
    05:00 -5°C° 0.5 mm 2 mps 595 mmHg 92%
    06:00 -5°C° 0.5 mm 2 mps 595 mmHg 93%
    07:00 -4°C° 0.5 mm 2 mps 595 mmHg 95%
    08:00 -3°C° 0.3 mm 2 mps 595 mmHg 95%
    09:00 -3°C° 0.3 mm 2 mps 595 mmHg 96%
    10:00 -2°C° 0.3 mm 2 mps 596 mmHg 96%
    11:00 -2°C° 0.3 mm 2 mps 596 mmHg 96%
    12:00 -1°C° 0.3 mm 2 mps 595 mmHg 96%
    13:00 -1°C° 0.3 mm 2 mps 595 mmHg 96%
    14:00 -1°C° 0.4 mm 2 mps 595 mmHg 97%
    15:00 -2°C° 0.4 mm 2 mps 595 mmHg 97%
    16:00 -2°C° 0.4 mm 2 mps 595 mmHg 98%
    17:00 -2°C° 0.5 mm 2 mps 595 mmHg 97%
    18:00 -3°C° 0.5 mm 2 mps 595 mmHg 97%
    19:00 -3°C° 0.5 mm 2 mps 595 mmHg 96%
    20:00 -3°C° 0.5 mm 2 mps 595 mmHg 96%
    21:00 -4°C° 0.5 mm 2 mps 595 mmHg 96%
    22:00 -4°C° 0.5 mm 2 mps 595 mmHg 96%
    23:00 -4°C° 0.2 mm 2 mps 595 mmHg 95%

    Day after tomorrow, 22 February, Wednesday

    Time Temperature Precipitation Wind Pressure Humidity
    00:00 -5°C° 0.2 mm 2 mps 594 mmHg 95%
    01:00 -5°C° 0.2 mm 2 mps 594 mmHg 95%
    02:00 -6°C° 0.1 mm 2 mps 593 mmHg 95%
    03:00 -6°C° 0.1 mm 1 mps 593 mmHg 95%
    04:00 -7°C° 0.1 mm 1 mps 592 mmHg 95%
    05:00 -8°C° 0 mm 1 mps 591 mmHg 95%
    06:00 -8°C° 0 mm 1 mps 591 mmHg 95%
    07:00 -9°C° 0 mm 1 mps 590 mmHg 95%
    08:00 -6°C° 0 mm 1 mps 592 mmHg 94%
    09:00 -2°C° 0 mm 1 mps 593 mmHg 94%
    10:00 0°C° 0 mm 1 mps 595 mmHg 93%
    11:00 +1°C° 0 mm 1 mps 594 mmHg 93%
    12:00 +1°C° 0 mm 1 mps 594 mmHg 92%
    13:00 +2°C° 0 mm 1 mps 594 mmHg 91%
    14:00 +2°C° 0 mm 1 mps 594 mmHg 93%
    15:00 +1°C° 0 mm 1 mps 593 mmHg 94%
    16:00 +1°C° 0 mm 1 mps 593 mmHg 96%
    17:00 -1°C° 0 mm 1 mps 592 mmHg 96%
    18:00 -2°C° 0 mm 1 mps 592 mmHg 95%
    19:00 -4°C° 0 mm 1 mps 591 mmHg 95%
    20:00 -6°C° 0 mm 1 mps 591 mmHg 95%
    21:00 -7°C° 0 mm 1 mps 591 mmHg 95%
    22:00 -7°C° 0 mm 1 mps 590 mmHg 95%
    23:00 -7°C° 0 mm 1 mps 590 mmHg 94%

    23 February, Thursday

    Time Temperature Precipitation Wind Pressure Humidity
    00:00 -7°C° 0 mm 1 mps 590 mmHg 94%
    01:00 -9°C° 0 mm 2 mps 590 mmHg 93%
    02:00 -8°C° 0 mm 2 mps 590 mmHg 92%
    03:00 -8°C° 0 mm 2 mps 590 mmHg 90%
    04:00 -8°C° 0 mm 2 mps 590 mmHg 89%
    05:00 -7°C° 0.1 mm 1 mps 590 mmHg 88%
    06:00 -6°C° 0.1 mm 1 mps 590 mmHg 87%
    07:00 -6°C° 0.1 mm 1 mps 590 mmHg 86%
    08:00 -3°C° 0 mm 1 mps 591 mmHg 85%
    09:00 -1°C° 0 mm 1 mps 592 mmHg 85%
    10:00 -1°C° 0 mm 2 mps 593 mmHg 85%
    11:00 -1°C° 0 mm 2 mps 593 mmHg 85%
    12:00 +1°C° 0 mm 2 mps 592 mmHg 86%
    13:00 +1°C° 0 mm 2 mps 592 mmHg 86%
    14:00 +1°C° 0 mm 2 mps 591 mmHg 88%
    15:00 -1°C° 0 mm 2 mps 590 mmHg 90%
    16:00 -1°C° 0 mm 2 mps 590 mmHg 92%
    17:00 -2°C° 0 mm 2 mps 589 mmHg 93%
    18:00 -3°C° 0 mm 2 mps 589 mmHg 94%
    19:00 -5°C° 0 mm 3 mps 588 mmHg 94%
    20:00 -4°C° 0 mm 2 mps 588 mmHg 94%
    21:00 -4°C° 0 mm 2 mps 588 mmHg 94%
    22:00 -5°C° 0 mm 2 mps 588 mmHg 94%
    23:00 -5°C° 0 mm 2 mps 587 mmHg 94%

    24 February, Friday

    Time Temperature Precipitation Wind Pressure Humidity
    00:00 -5°C° 0 mm 2 mps 587 mmHg 94%
    01:00 -5°C° 0 mm 2 mps 586 mmHg 94%
    02:00 -5°C° 0.1 mm 2 mps 586 mmHg 94%
    03:00 -5°C° 0.1 mm 2 mps 586 mmHg 94%
    04:00 -5°C° 0.1 mm 2 mps 585 mmHg 93%
    05:00 -6°C° 0.6 mm 2 mps 585 mmHg 95%
    06:00 -6°C° 0.6 mm 2 mps 585 mmHg 96%
    07:00 -6°C° 0.6 mm 2 mps 585 mmHg 97%
    08:00 -6°C° 1.3 mm 2 mps 585 mmHg 97%
    09:00 -6°C° 1.3 mm 2 mps 585 mmHg 97%
    10:00 -7°C° 1.3 mm 2 mps 586 mmHg 97%
    11:00 -8°C° 1.2 mm 3 mps 586 mmHg 96%
    12:00 -8°C° 1.2 mm 3 mps 585 mmHg 96%
    13:00 -8°C° 1.2 mm 3 mps 585 mmHg 96%
    14:00 -9°C° 0.9 mm 3 mps 586 mmHg 96%
    15:00 -9°C° 0.9 mm 3 mps 586 mmHg 96%
    16:00 -9°C° 0.9 mm 3 mps 586 mmHg 95%
    17:00 -10°C° 0.7 mm 3 mps 587 mmHg 96%
    18:00 -11°C° 0.7 mm 4 mps 587 mmHg 96%
    19:00 -12°C° 0.7 mm 4 mps 588 mmHg 97%
    20:00 -12°C° 0.5 mm 4 mps 589 mmHg 97%
    21:00 -12°C° 0.5 mm 4 mps 589 mmHg 96%
    22:00 -14°C° 0.5 mm 4 mps 590 mmHg 96%
    23:00 -13°C° 0.3 mm 3 mps 591 mmHg 96%

    25 February, Saturday

    Time Temperature Precipitation Wind Pressure Humidity
    00:00 -13°C° 0.3 mm 3 mps 591 mmHg 96%
    01:00 -14°C° 0.3 mm 3 mps 592 mmHg 96%
    02:00 -14°C° 0.2 mm 3 mps 592 mmHg 96%
    03:00 -15°C° 0.2 mm 3 mps 592 mmHg 96%
    04:00 -15°C° 0.2 mm 3 mps 592 mmHg 96%
    05:00 -16°C° 0 mm 3 mps 592 mmHg 95%
    06:00 -17°C° 0 mm 3 mps 593 mmHg 94%
    07:00 -18°C° 0 mm 3 mps 593 mmHg 93%
    08:00 -15°C° 0 mm 2 mps 594 mmHg 91%
    09:00 -13°C° 0 mm 2 mps 595 mmHg 88%
    10:00 -10°C° 0 mm 2 mps 596 mmHg 85%
    11:00 -9°C° 0 mm 2 mps 596 mmHg 84%
    12:00 -7°C° 0 mm 2 mps 597 mmHg 82%
    13:00 -4°C° 0 mm 1 mps 597 mmHg 81%
    14:00 -4°C° 0 mm 1 mps 597 mmHg 84%
    15:00 -4°C° 0 mm 1 mps 597 mmHg 87%
    16:00 -3°C° 0 mm 1 mps 597 mmHg 90%
    17:00 -6°C° 0 mm 1 mps 596 mmHg 90%
    18:00 -8°C° 0 mm 1 mps 596 mmHg 90%
    19:00 -9°C° 0 mm 1 mps 595 mmHg 90%
    20:00 -8°C° 0.1 mm 1 mps 596 mmHg 91%
    21:00 -8°C° 0.1 mm 2 mps 596 mmHg 91%
    22:00 -7°C° 0.1 mm 2 mps 597 mmHg 92%
    23:00 -7°C° 0.3 mm 2 mps 597 mmHg 92%
    Show more